[[{"header":{"parameterUnit":"m.s-1","parameterCategory":1,"la1":30.2991,"la2":30.254,"lo1":-89.0895,"lo2":-89.0444,"dy":0.0017,"dx":0.0017,"nx":28,"ny":28,"refTime":"2026-02-04T03:00:00:Z","depth":0,"parameterNumber":2,"parameterNumberName":"U-component_of_WINDS"},"data":[0,0,0,0,0,0,0,0,0,0,0,0,0,0,0,0,0,0,0,0,0,0,0,0,0,0,0,0,0,0,0,0,0,0,0,0,0,0,0,0,0,0,0,0,0,0,0,0,0,0,0,0,0,0,0,0,0,0,2.7804,2.7804,0,2.7821,2.7821,2.7821,2.7813,2.7812,2.7812,2.7812,2.7827,2.7828,2.7829,0,0,0,0,0,0,0,0,0,0,0,0,0,2.7764,2.7765,2.7804,2.7804,2.7804,2.7821,2.7821,2.7821,2.7813,2.7812,2.7812,2.7811,2.7827,2.7828,2.7829,0,0,0,0,0,0,0,0,0,0,0,0,0,2.7781,2.7765,2.7804,2.7802,2.7802,2.7821,2.7821,2.7821,2.7813,2.7812,2.7812,2.7811,2.7826,2.7828,2.7829,2.7849,0,0,2.7833,2.7833,0,0,0,0,0,0,0,0,2.778,2.7783,2.7802,2.7802,2.7802,2.7814,2.7813,2.7831,2.7813,2.7809,2.7812,2.7811,2.7823,2.7825,2.7829,2.785,2.7851,2.7833,2.7833,2.7834,2.7834,0,0,0,0,0,0,0,2.7779,2.7782,2.781,2.7802,2.7803,2.7801,2.7802,2.7816,2.7819,2.7809,2.7809,2.7811,2.7823,2.7828,2.7829,2.7851,2.7833,2.7834,2.7834,2.7835,2.7893,2.7893,0,0,0,0,0,0,2.7778,2.7781,2.781,2.7811,2.779,2.7802,2.7804,2.7811,2.7819,2.782,2.7811,2.781,2.7826,2.7828,2.783,2.7856,2.7834,2.7835,2.7836,2.7892,2.7893,2.7894,0,0,0,0,0,0,2.7777,2.7781,2.7809,2.7796,2.7799,2.7803,2.7811,2.7812,2.7817,2.7821,2.7821,2.7816,2.7826,2.7828,2.7845,2.7856,2.7836,2.7837,2.7891,2.7892,2.7893,2.7908,0,0,0,0,0,0,2.7776,2.778,2.7788,2.7796,2.78,2.7824,2.7812,2.7812,2.7819,2.7818,2.7825,2.7826,2.7825,2.7844,2.7847,2.7858,2.7838,2.789,2.7891,2.7893,2.7906,2.7909,2.7912,0,0,0,0,0,2.7775,2.779,2.7788,2.7792,2.781,2.7825,2.7827,2.7827,2.782,2.7828,2.7831,2.7826,2.7855,2.7845,2.7849,2.786,2.7889,2.7891,2.7893,2.7905,2.7909,2.7912,0,0,0,0,0,0,2.7782,2.7791,2.7789,2.7808,2.7816,2.7823,2.7833,2.783,2.784,2.7838,2.7837,2.7839,2.7857,2.7861,2.785,2.7882,2.7871,2.7873,2.7879,2.7883,2.7885,2.7884,2.7839,0,0,0,0,0,2.7786,2.7798,2.7805,2.7821,2.7825,2.7829,2.7835,2.7835,2.7843,2.7846,2.785,2.7858,2.7869,2.7876,2.7886,2.7907,2.7909,2.7917,2.792,2.7922,2.7924,2.7937,2.7941,2.7899,2.7899,2.7899,0,0,2.7794,2.78,2.7807,2.7823,2.7829,2.7841,2.7831,2.7844,2.7854,2.7847,2.7864,2.7868,2.7877,2.7897,2.7905,2.79,2.7937,2.7924,2.7926,2.7927,2.794,2.7944,2.7947,2.7901,2.79,2.79,0,0,2.7814,2.782,2.7835,2.7842,2.7852,2.7855,2.7859,2.7868,2.787,2.7888,2.7884,2.7895,2.7914,2.7921,2.7927,2.7954,2.795,2.7958,2.7972,2.7985,2.7988,2.7991,2.8002,2.8006,2.796,2.796,2.796,0,2.7822,2.7841,2.7843,2.7857,2.7865,2.7861,2.7877,2.7883,2.7896,2.7901,2.7896,2.7921,2.7926,2.7949,2.7956,2.796,2.7965,2.7956,2.7988,2.7991,2.7993,2.8004,2.8008,2.7961,2.7961,2.7961,2.7961,0,2.7852,2.7865,2.7876,2.789,2.7899,2.7914,2.7918,2.7927,2.7927,2.793,2.7949,2.7956,2.7969,2.7974,2.7973,2.7997,2.7994,2.7988,2.7976,2.7998,2.8008,2.8012,2.7962,2.7962,2.7962,2.7961,0,0,2.7875,2.7892,2.7896,2.7904,2.7916,2.7926,2.7942,2.7956,2.7964,2.7974,2.7987,2.8005,2.8001,2.8008,2.8008,2.8019,2.8042,2.8012,2.8012,2.8018,2.8071,2.8075,2.8079,2.804,2.8041,2.8041,2.807,0,2.7897,2.7925,2.7928,2.7953,2.7966,2.7965,2.7979,2.7988,2.7993,2.8005,2.801,2.8023,2.8016,2.802,2.8032,2.8037,2.8053,2.8035,2.8053,2.8053,2.8051,2.8084,2.8088,2.8115,2.8074,2.8075,2.8075,0,2.7926,2.7939,2.7965,2.7978,2.7984,2.7996,2.8011,2.8022,2.8034,2.8037,2.8046,2.8046,2.8063,2.8052,2.8076,2.8064,2.8072,2.8076,2.8077,2.8078,2.8065,2.8087,2.8123,2.8127,2.8081,2.808,2.808,0,2.7942,2.7965,2.7984,2.7991,2.8006,2.8015,2.8022,2.8033,2.8042,2.8055,2.8061,2.8075,2.8083,2.8094,2.8098,2.8089,2.8122,2.8111,2.8125,2.8125,2.8131,2.8131,2.817,2.8137,2.8137,2.8136,2.8136,0,2.7966,2.7982,2.7992,2.8004,2.8023,2.8027,2.8046,2.8053,2.8063,2.8077,2.8076,2.8089,2.8094,2.8107,2.8111,2.8131,2.8134,2.8137,2.8138,2.8137,2.8137,2.8142,2.814,2.8138,2.8137,2.8137,2.8137,0,2.7986,2.7993,2.8014,2.8028,2.8032,2.8046,2.8058,2.807,2.8076,2.8093,2.8098,2.8106,2.8123,2.8128,2.8148,2.815,2.8174,2.8173,2.817,2.8171,2.8185,2.8184,2.8228,2.8235,2.8197,2.8197,2.8198,0,2.8001,2.8014,2.803,2.804,2.8047,2.8063,2.8073,2.8078,2.8089,2.8105,2.8115,2.8132,2.8146,2.8172,2.818,2.8196,2.8195,2.821,2.8198,2.8197,2.8196,2.8196,2.8198,2.8212,2.8213,2.8213,2.8213,0,2.8027,2.803,2.8045,2.8062,2.8074,2.8087,2.81,2.8108,2.8115,2.8127,2.8145,2.8156,2.8178,2.8195,2.8211,2.8219,2.8218,2.8218,2.8222,2.8221,2.8219,2.8221,2.8177,2.8216,2.8216,2.8216,2.8215,2.8215,2.8045,2.8057,2.8072,2.8089,2.8099,2.8112,2.8125,2.8133,2.8148,2.8167,2.8169,2.8189,2.8202,2.8225,2.8233,2.8249,2.8245,2.8251,2.8252,2.8253,2.8255,2.8217,2.8252,2.8252,2.8252,2.8252,2.8252,0,2.8072,2.8082,2.8097,2.8116,2.813,2.813,2.8144,2.8156,2.8173,2.8186,2.8201,2.8223,2.824,2.8251,2.8268,2.8279,2.8279,2.8283,2.8283,2.8285,2.8257,2.8252,2.8283,2.8283,2.8283,2.8283,2.8283,2.8283,2.8087,2.8109,2.8115,2.8142,2.8152,2.8172,2.818,2.8193,2.8203,2.8228,2.8243,2.825,2.8263,2.8282,2.8299,2.8301,2.8308,2.8313,2.8315,2.8289,2.8286,2.8283,2.8278,2.8314,2.8314,2.8341,2.8342,2.8342]},{"header":{"parameterUnit":"m.s-1","parameterCategory":1,"la1":30.2991,"la2":30.254,"lo1":-89.0895,"lo2":-89.0444,"dy":0.0017,"dx":0.0017,"nx":28,"ny":28,"refTime":"2026-02-04T03:00:00:Z","depth":0,"parameterNumber":3,"parameterNumberName":"V-component_of_WINDS"},"data":[0,0,0,0,0,0,0,0,0,0,0,0,0,0,0,0,0,0,0,0,0,0,0,0,0,0,0,0,0,0,0,0,0,0,0,0,0,0,0,0,0,0,0,0,0,0,0,0,0,0,0,0,0,0,0,0,0,0,-5.7726,-5.7726,0,-5.7788,-5.7789,-5.779,-5.7784,-5.7783,-5.7782,-5.7781,-5.7841,-5.7843,-5.7846,0,0,0,0,0,0,0,0,0,0,0,0,0,-5.76,-5.7602,-5.7726,-5.7726,-5.7727,-5.7788,-5.7789,-5.779,-5.7784,-5.7783,-5.7782,-5.7781,-5.784,-5.7843,-5.7846,0,0,0,0,0,0,0,0,0,0,0,0,0,-5.7658,-5.7603,-5.7725,-5.7732,-5.7733,-5.7788,-5.7789,-5.779,-5.7784,-5.7783,-5.7781,-5.778,-5.7839,-5.7843,-5.7847,-5.7898,0,0,-5.7858,-5.786,0,0,0,0,0,0,0,0,-5.7654,-5.7662,-5.773,-5.7731,-5.7733,-5.7777,-5.7767,-5.7826,-5.7785,-5.7765,-5.7781,-5.7779,-5.7821,-5.7826,-5.7841,-5.7901,-5.7904,-5.7858,-5.7861,-5.7862,-5.7863,0,0,0,0,0,0,0,-5.7651,-5.766,-5.775,-5.7731,-5.7733,-5.7731,-5.7738,-5.7778,-5.78,-5.7766,-5.7766,-5.7774,-5.7821,-5.7837,-5.7842,-5.7905,-5.7858,-5.7862,-5.7864,-5.7865,-5.8016,-5.8018,0,0,0,0,0,0,-5.7645,-5.7656,-5.7748,-5.7752,-5.7689,-5.7735,-5.7742,-5.7764,-5.7799,-5.7803,-5.7775,-5.7773,-5.7831,-5.7838,-5.7844,-5.791,-5.7862,-5.7866,-5.7868,-5.8014,-5.8016,-5.8018,0,0,0,0,0,0,-5.7643,-5.7654,-5.7746,-5.7704,-5.7716,-5.7738,-5.7763,-5.7766,-5.7782,-5.7806,-5.7809,-5.7787,-5.783,-5.7839,-5.7886,-5.7912,-5.7867,-5.7871,-5.8012,-5.8015,-5.8017,-5.8041,0,0,0,0,0,0,-5.7639,-5.7653,-5.7672,-5.7705,-5.7718,-5.7787,-5.7765,-5.7768,-5.7789,-5.7787,-5.7818,-5.7822,-5.783,-5.7881,-5.789,-5.7916,-5.7874,-5.801,-5.8013,-5.8017,-5.8038,-5.8044,-5.8049,0,0,0,0,0,-5.7635,-5.7674,-5.7673,-5.7684,-5.7743,-5.7788,-5.7796,-5.7805,-5.7791,-5.7811,-5.7828,-5.7821,-5.7908,-5.7886,-5.7896,-5.7924,-5.8008,-5.8012,-5.8016,-5.8035,-5.8043,-5.8049,0,0,0,0,0,0,-5.7641,-5.7678,-5.7678,-5.7729,-5.7756,-5.7787,-5.7813,-5.7812,-5.7842,-5.7839,-5.7849,-5.7856,-5.7905,-5.7919,-5.7893,-5.7978,-5.7956,-5.7962,-5.7967,-5.7975,-5.798,-5.7976,-5.7877,0,0,0,0,0,-5.7649,-5.7684,-5.7714,-5.7756,-5.777,-5.779,-5.781,-5.7815,-5.7843,-5.7853,-5.7873,-5.7899,-5.7933,-5.7954,-5.7986,-5.804,-5.8049,-5.8065,-5.8071,-5.8075,-5.8081,-5.8114,-5.8123,-5.8031,-5.8031,-5.8031,0,0,-5.7665,-5.769,-5.771,-5.7759,-5.778,-5.7816,-5.7799,-5.7836,-5.7863,-5.7858,-5.7906,-5.7922,-5.7952,-5.8004,-5.8028,-5.8017,-5.8108,-5.808,-5.8084,-5.8087,-5.8119,-5.8128,-5.8136,-5.8034,-5.8034,-5.8033,0,0,-5.7712,-5.7734,-5.7774,-5.7797,-5.7831,-5.7845,-5.7854,-5.7887,-5.7898,-5.7947,-5.7945,-5.7977,-5.8034,-5.8057,-5.8076,-5.8138,-5.8135,-5.8148,-5.8178,-5.821,-5.8218,-5.8224,-5.8249,-5.8258,-5.8153,-5.8153,-5.8153,0,-5.7727,-5.7782,-5.7794,-5.7834,-5.7856,-5.7857,-5.7898,-5.792,-5.7962,-5.7977,-5.7965,-5.804,-5.806,-5.812,-5.8136,-5.815,-5.8163,-5.8144,-5.8216,-5.8223,-5.8229,-5.8253,-5.8262,-5.8155,-5.8155,-5.8155,-5.8155,0,-5.78,-5.7838,-5.7866,-5.7911,-5.7937,-5.7976,-5.7995,-5.802,-5.8025,-5.804,-5.8091,-5.8116,-5.8155,-5.8169,-5.8172,-5.8231,-5.8224,-5.8214,-5.8192,-5.8239,-5.8262,-5.8271,-5.8157,-5.8157,-5.8156,-5.8156,0,0,-5.785,-5.7905,-5.7915,-5.7937,-5.7977,-5.8007,-5.8049,-5.8089,-5.8112,-5.8142,-5.8178,-5.8229,-5.8221,-5.8243,-5.8249,-5.8278,-5.833,-5.8265,-5.8266,-5.8278,-5.84,-5.8408,-5.8418,-5.8328,-5.833,-5.8331,-5.8398,0,-5.7903,-5.7978,-5.7993,-5.8058,-5.8096,-5.8099,-5.8136,-5.8165,-5.8181,-5.8215,-5.8233,-5.827,-5.8256,-5.827,-5.8299,-5.8318,-5.8355,-5.8313,-5.8363,-5.8364,-5.8356,-5.843,-5.8437,-5.8499,-5.8407,-5.8408,-5.8409,0,-5.7974,-5.801,-5.808,-5.8121,-5.8137,-5.8169,-5.8211,-5.8243,-5.8277,-5.8287,-5.8314,-5.8319,-5.8363,-5.834,-5.8403,-5.8374,-5.8396,-5.8409,-5.8411,-5.8417,-5.839,-5.8439,-5.8518,-5.8528,-5.8423,-5.8422,-5.8421,0,-5.8007,-5.8072,-5.8124,-5.8143,-5.819,-5.8214,-5.8234,-5.8267,-5.8292,-5.8328,-5.8345,-5.8384,-5.8406,-5.8437,-5.8453,-5.8434,-5.8516,-5.8492,-5.8526,-5.8526,-5.8543,-5.8542,-5.8629,-5.8555,-5.8555,-5.8554,-5.8554,0,-5.8065,-5.8108,-5.8141,-5.8172,-5.8222,-5.8239,-5.8288,-5.8308,-5.8338,-5.8375,-5.8379,-5.8413,-5.8431,-5.8468,-5.8481,-5.8533,-5.8542,-5.8552,-5.8555,-5.8552,-5.8551,-5.8567,-5.8564,-5.8557,-5.8556,-5.8556,-5.8555,0,-5.8109,-5.8132,-5.819,-5.8232,-5.8244,-5.8279,-5.8314,-5.8346,-5.8364,-5.8411,-5.8422,-5.845,-5.8495,-5.8514,-5.8567,-5.8576,-5.8636,-5.8635,-5.8625,-5.8627,-5.866,-5.8658,-5.8761,-5.8777,-5.8691,-5.8692,-5.8692,0,-5.8145,-5.818,-5.8227,-5.8253,-5.8276,-5.8317,-5.8344,-5.8363,-5.8391,-5.8436,-5.8463,-5.8508,-5.8545,-5.8616,-5.8641,-5.8683,-5.8684,-5.8718,-5.869,-5.8688,-5.8687,-5.8686,-5.8691,-5.8723,-5.8723,-5.8724,-5.8725,0,-5.8208,-5.8219,-5.8259,-5.8305,-5.8338,-5.8374,-5.8409,-5.843,-5.8455,-5.8487,-5.8534,-5.8563,-5.8621,-5.8666,-5.8711,-5.8732,-5.8733,-5.8734,-5.8744,-5.8742,-5.8736,-5.8743,-5.8641,-5.8731,-5.873,-5.873,-5.8729,-5.8729,-5.8251,-5.8283,-5.8323,-5.8369,-5.8399,-5.8433,-5.8466,-5.8491,-5.8531,-5.8581,-5.859,-5.8641,-5.8678,-5.8739,-5.8762,-5.8802,-5.8794,-5.8808,-5.8812,-5.8816,-5.8819,-5.873,-5.881,-5.881,-5.881,-5.881,-5.8809,0,-5.8316,-5.8343,-5.8385,-5.8437,-5.8474,-5.8475,-5.8515,-5.8545,-5.8591,-5.8626,-5.8665,-5.8721,-5.8767,-5.8797,-5.8843,-5.887,-5.8872,-5.8882,-5.888,-5.8886,-5.8823,-5.881,-5.888,-5.888,-5.888,-5.888,-5.888,-5.888,-5.8354,-5.841,-5.8427,-5.8499,-5.8526,-5.8578,-5.8602,-5.8634,-5.8663,-5.8727,-5.8766,-5.8787,-5.8821,-5.8871,-5.8913,-5.8921,-5.8939,-5.8949,-5.8957,-5.8897,-5.889,-5.8883,-5.8871,-5.8952,-5.8953,-5.9017,-5.9018,-5.9018]}]]